• In Romania
  • List of Countries
  • For 7 days
  • Water Temperature
  • Satellite Maps
  • Weather Map
  • Weather Widgets
  • user-avatar
    Login

    Hourly Weather Kandi

    Today, 20 June, Wednesday

    Time Temperature Precipitation Wind Pressure Humidity
    00:00 +32°C° 0 mm 4 mps 737 mmHg 57%
    01:00 +30°C° 0 mm 4 mps 737 mmHg 60%
    02:00 +30°C° 0 mm 4 mps 736 mmHg 62%
    03:00 +29°C° 0 mm 4 mps 736 mmHg 65%
    04:00 +29°C° 0 mm 4 mps 737 mmHg 67%
    05:00 +28°C° 0 mm 4 mps 737 mmHg 68%
    06:00 +28°C° 0 mm 4 mps 737 mmHg 70%
    07:00 +29°C° 0 mm 4 mps 737 mmHg 65%
    08:00 +32°C° 0 mm 4 mps 738 mmHg 60%
    09:00 +33°C° 0 mm 5 mps 738 mmHg 55%
    10:00 +35°C° 0 mm 4 mps 738 mmHg 50%
    11:00 +36°C° 0 mm 4 mps 737 mmHg 45%
    12:00 +38°C° 0 mm 4 mps 737 mmHg 40%
    13:00 +40°C° 0 mm 4 mps 736 mmHg 38%
    14:00 +40°C° 0 mm 4 mps 736 mmHg 36%
    15:00 +41°C° 0 mm 4 mps 735 mmHg 34%
    16:00 +39°C° 0 mm 3 mps 735 mmHg 37%
    17:00 +38°C° 0 mm 3 mps 735 mmHg 39%
    18:00 +37°C° 0 mm 2 mps 735 mmHg 41%
    19:00 +36°C° 0.9 mm 2 mps 736 mmHg 47%
    20:00 +35°C° 0.9 mm 2 mps 736 mmHg 52%
    21:00 +33°C° 0.9 mm 3 mps 737 mmHg 58%
    22:00 +31°C° 8.3 mm 3 mps 737 mmHg 66%
    23:00 +29°C° 8.3 mm 4 mps 737 mmHg 75%

    Tomorrow, 21 June, Thursday

    Time Temperature Precipitation Wind Pressure Humidity
    00:00 +28°C° 8.3 mm 4 mps 737 mmHg 83%
    01:00 +27°C° 4.7 mm 4 mps 737 mmHg 84%
    02:00 +27°C° 4.7 mm 4 mps 737 mmHg 85%
    03:00 +27°C° 4.7 mm 3 mps 737 mmHg 87%
    04:00 +26°C° 0.4 mm 4 mps 737 mmHg 87%
    05:00 +26°C° 0.4 mm 4 mps 737 mmHg 88%
    06:00 +26°C° 0.4 mm 5 mps 737 mmHg 89%
    07:00 +27°C° 0 mm 4 mps 738 mmHg 86%
    08:00 +27°C° 0 mm 4 mps 738 mmHg 83%
    09:00 +28°C° 0 mm 4 mps 738 mmHg 80%
    10:00 +28°C° 0 mm 4 mps 738 mmHg 77%
    11:00 +29°C° 0 mm 3 mps 738 mmHg 73%
    12:00 +30°C° 0 mm 3 mps 738 mmHg 69%
    13:00 +30°C° 0.1 mm 3 mps 738 mmHg 69%
    14:00 +30°C° 0.1 mm 3 mps 737 mmHg 69%
    15:00 +30°C° 0.1 mm 3 mps 737 mmHg 69%
    16:00 +30°C° 0.1 mm 2 mps 737 mmHg 71%
    17:00 +29°C° 0.1 mm 2 mps 737 mmHg 73%
    18:00 +29°C° 0.1 mm 1 mps 737 mmHg 75%
    19:00 +28°C° 0.2 mm 1 mps 738 mmHg 77%
    20:00 +28°C° 0.2 mm 1 mps 738 mmHg 80%
    21:00 +27°C° 0.2 mm 1 mps 739 mmHg 82%
    22:00 +27°C° 0.2 mm 2 mps 739 mmHg 83%
    23:00 +27°C° 0.2 mm 2 mps 739 mmHg 83%

    Day after tomorrow, 22 June, Friday

    Time Temperature Precipitation Wind Pressure Humidity
    00:00 +26°C° 0.2 mm 2 mps 739 mmHg 84%
    01:00 +26°C° 0.6 mm 2 mps 738 mmHg 85%
    02:00 +26°C° 0.6 mm 2 mps 738 mmHg 85%
    03:00 +26°C° 0.6 mm 2 mps 738 mmHg 85%
    04:00 +26°C° 0.4 mm 2 mps 738 mmHg 86%
    05:00 +25°C° 0.4 mm 2 mps 739 mmHg 87%
    06:00 +25°C° 0.4 mm 2 mps 739 mmHg 88%
    07:00 +26°C° 0.3 mm 2 mps 739 mmHg 86%
    08:00 +27°C° 0.3 mm 2 mps 739 mmHg 83%
    09:00 +27°C° 0.3 mm 3 mps 740 mmHg 81%
    10:00 +29°C° 0.4 mm 3 mps 740 mmHg 75%
    11:00 +30°C° 0.4 mm 3 mps 739 mmHg 68%
    12:00 +33°C° 0.4 mm 3 mps 739 mmHg 62%
    13:00 +33°C° 0.9 mm 3 mps 738 mmHg 62%
    14:00 +33°C° 0.9 mm 3 mps 737 mmHg 61%
    15:00 +33°C° 0.9 mm 3 mps 737 mmHg 61%
    16:00 +31°C° 1.4 mm 2 mps 737 mmHg 66%
    17:00 +30°C° 1.4 mm 2 mps 737 mmHg 72%
    18:00 +29°C° 1.4 mm 2 mps 737 mmHg 77%
    19:00 +28°C° 0.5 mm 1 mps 738 mmHg 80%
    20:00 +28°C° 0.5 mm 1 mps 738 mmHg 82%
    21:00 +27°C° 0.5 mm 1 mps 739 mmHg 85%
    22:00 +27°C° 0.1 mm 1 mps 739 mmHg 85%
    23:00 +27°C° 0.1 mm 2 mps 739 mmHg 86%

    23 June, Saturday

    Time Temperature Precipitation Wind Pressure Humidity
    00:00 +26°C° 0.1 mm 2 mps 739 mmHg 87%
    01:00 +26°C° 0 mm 2 mps 739 mmHg 88%
    02:00 +26°C° 0 mm 2 mps 739 mmHg 89%
    03:00 +25°C° 0 mm 2 mps 738 mmHg 91%
    04:00 +25°C° 0 mm 2 mps 739 mmHg 91%
    05:00 +25°C° 0 mm 2 mps 739 mmHg 91%
    06:00 +25°C° 0 mm 2 mps 739 mmHg 91%
    07:00 +26°C° 0 mm 3 mps 740 mmHg 85%
    08:00 +27°C° 0 mm 3 mps 740 mmHg 79%
    09:00 +29°C° 0 mm 3 mps 740 mmHg 73%
    10:00 +30°C° 0 mm 3 mps 740 mmHg 66%
    11:00 +33°C° 0 mm 3 mps 739 mmHg 60%
    12:00 +34°C° 0 mm 2 mps 739 mmHg 53%
    13:00 +34°C° 0.3 mm 2 mps 738 mmHg 52%
    14:00 +35°C° 0.3 mm 2 mps 737 mmHg 52%
    15:00 +35°C° 0.3 mm 2 mps 736 mmHg 52%
    16:00 +33°C° 0 mm 1 mps 736 mmHg 55%
    17:00 +32°C° 0 mm 1 mps 737 mmHg 58%
    18:00 +31°C° 0 mm 1 mps 737 mmHg 61%
    19:00 +31°C° 0.1 mm 1 mps 737 mmHg 63%
    20:00 +30°C° 0.1 mm 1 mps 738 mmHg 66%
    21:00 +29°C° 0.1 mm 1 mps 738 mmHg 69%
    22:00 +29°C° 0.7 mm 1 mps 738 mmHg 71%
    23:00 +29°C° 0.7 mm 1 mps 738 mmHg 73%

    24 June, Sunday

    Time Temperature Precipitation Wind Pressure Humidity
    00:00 +28°C° 0.7 mm 2 mps 738 mmHg 75%
    01:00 +27°C° 1.8 mm 2 mps 738 mmHg 78%
    02:00 +27°C° 1.8 mm 3 mps 737 mmHg 81%
    03:00 +26°C° 1.8 mm 3 mps 737 mmHg 84%
    04:00 +26°C° 0.1 mm 3 mps 737 mmHg 85%
    05:00 +26°C° 0.1 mm 3 mps 738 mmHg 87%
    06:00 +26°C° 0.1 mm 3 mps 738 mmHg 88%
    07:00 +26°C° 0 mm 3 mps 738 mmHg 85%
    08:00 +27°C° 0 mm 3 mps 739 mmHg 82%
    09:00 +28°C° 0 mm 3 mps 739 mmHg 78%
    10:00 +29°C° 0.1 mm 3 mps 739 mmHg 73%
    11:00 +30°C° 0.1 mm 3 mps 739 mmHg 69%
    12:00 +31°C° 0.1 mm 3 mps 738 mmHg 64%
    13:00 +31°C° 1.4 mm 3 mps 738 mmHg 65%
    14:00 +31°C° 1.4 mm 2 mps 737 mmHg 65%
    15:00 +31°C° 1.4 mm 2 mps 736 mmHg 66%
    16:00 +30°C° 1.7 mm 2 mps 737 mmHg 71%
    17:00 +29°C° 1.7 mm 1 mps 737 mmHg 76%
    18:00 +28°C° 1.7 mm 1 mps 737 mmHg 81%
    19:00 +28°C° 0.1 mm 1 mps 737 mmHg 83%
    20:00 +27°C° 0.1 mm 1 mps 738 mmHg 85%
    21:00 +27°C° 0.1 mm 2 mps 738 mmHg 87%
    22:00 +26°C° 0 mm 1 mps 738 mmHg 88%
    23:00 +26°C° 0 mm 1 mps 738 mmHg 89%

    25 June, Monday

    Time Temperature Precipitation Wind Pressure Humidity
    00:00 +26°C° 0 mm 1 mps 738 mmHg 90%
    01:00 +26°C° 0 mm 1 mps 737 mmHg 90%
    02:00 +25°C° 0 mm 1 mps 737 mmHg 90%
    03:00 +25°C° 0 mm 1 mps 737 mmHg 91%
    04:00 +25°C° 0 mm 1 mps 737 mmHg 90%
    05:00 +25°C° 0 mm 1 mps 737 mmHg 90%
    06:00 +25°C° 0 mm 1 mps 738 mmHg 90%
    07:00 +27°C° 0 mm 2 mps 738 mmHg 82%
    08:00 +29°C° 0 mm 2 mps 738 mmHg 74%
    09:00 +30°C° 0 mm 2 mps 739 mmHg 66%
    10:00 +32°C° 0 mm 2 mps 738 mmHg 59%
    11:00 +35°C° 0 mm 2 mps 738 mmHg 52%
    12:00 +36°C° 0 mm 1 mps 738 mmHg 45%
    13:00 +35°C° 0 mm 1 mps 737 mmHg 46%
    14:00 +35°C° 0 mm 1 mps 736 mmHg 46%
    15:00 +35°C° 0 mm 1 mps 736 mmHg 47%
    16:00 +34°C° 0 mm 1 mps 736 mmHg 50%
    17:00 +33°C° 0 mm 1 mps 736 mmHg 53%
    18:00 +32°C° 0 mm 1 mps 736 mmHg 56%
    19:00 +31°C° 2.7 mm 1 mps 737 mmHg 62%
    20:00 +30°C° 2.7 mm 2 mps 737 mmHg 68%
    21:00 +29°C° 2.7 mm 2 mps 738 mmHg 74%
    22:00 +28°C° 4 mm 2 mps 738 mmHg 79%
    23:00 +27°C° 4 mm 1 mps 738 mmHg 84%
    Show more